Location: *
(43.0167°S, 179.9000°E)
Time: 19:35:57
(UTC+00:00)

Okean 1 Rocket - Pass Details

Date: 12 August 2024
Orbit: 602 x 631 km, 82.5° (Epoch: 19 September)

Event Time Altitude Azimuth Distance (km) Brightness Sun altitude
Rises 16:37:10 0° 185° (S) 2,912 6.5 -26.0°
Reaches altitude 10° 16:39:26 10° 181° (S) 2,004 5.7 -25.6°
Maximum altitude 16:43:50 60° 100° (E) 721 3.6 -24.8°
Drops below altitude 10° 16:48:12 10° 20° (NNE) 1,993 5.9 -24.0°
Sets 16:50:26 0° 16° (NNE) 2,895 6.7 -23.6°
